{"data":{"norad_id":60046,"intl_designator":"2024-112J","name":"STARLINK-11155 [DTC]","alt_names":[],"object_type":"PAYLOAD","status":"ACTIVE","operator":null,"country":"US","launch_date":"2024-06-08","launch_site_code":"AFWTR","launch_vehicle":null,"mission":null,"orbit_class":"UNKNOWN","rcs_meters":null,"size_class":null,"mass_kg":null,"dimensions":null,"purposes":["comms"],"wikipedia_slug":null,"has_3d_model":false,"image_url":null,"decayed_at":null,"tle_current":{"epoch":"2026-09-21T14:33:02.858976Z","epoch_age_seconds":82655,"freshness":"FRESH","line1":"1 60046U 24112J   26264.60628309 -.00003692  00000+0 -25641-4 0  9993","line2":"2 60046  53.1599  20.3472 0001014  86.0941 274.0193 15.69700308131754","mean_motion":15.69700308,"eccentricity":0.0001014,"inclination_deg":53.1599,"raan_deg":20.3472,"arg_perigee_deg":86.0941,"mean_anomaly_deg":274.0193,"bstar":-2.5641e-5,"rev_number":13175,"period_min":91.737256638163,"perigee_km":359.07126315997,"apogee_km":360.4377075532,"semimajor_km":6737.8914853566,"source":"CELESTRAK","updated_at":"2026-09-22T09:00:49.143419Z"}}}